| time (UTC) | temp F | wind direction | speed knots | gust knots | rain 1hr in | rain 24hr in | rain mn in | humidity % | barometer mb |
| 20260510211432 | 47 | 41 | 0.9 | 2.6 | 0.00 | 0.00 | 0.00 | 74 | 1014.7 |
| 20260510204432 | 45 | 39 | 0.0 | 0.0 | 0.00 | 0.00 | 0.00 | 76 | 1014.3 |
| 20260510194431 | 51 | 0 | 0.0 | 1.7 | 0.00 | 0.00 | 0.00 | 64 | 1014.4 |
| 20260510191432 | 52 | 39 | 0.9 | 4.3 | 0.00 | 0.00 | 0.00 | 61 | 1014.6 |
| 20260510184431 | 53 | 6 | 1.7 | 5.2 | 0.00 | 0.00 | 0.00 | 59 | 1014.7 |
| 20260510181431 | 54 | 45 | 2.6 | 4.3 | 0.00 | 0.00 | 0.00 | 58 | 1014.7 |
| 20260510174431 | 53 | 7 | 0.9 | 6.1 | 0.00 | 0.00 | 0.00 | 58 | 1014.6 |
| 20260510171433 | 55 | 357 | 2.6 | 6.1 | 0.00 | 0.00 | 0.00 | 57 | 1014.8 |
| 20260510164431 | 56 | 354 | 2.6 | 7.8 | 0.00 | 0.00 | 0.00 | 57 | 1015.2 |
| 20260510154430 | 57 | 344 | 4.3 | 8.7 | 0.00 | 0.00 | 0.00 | 56 | 1015.7 |
| 20260510151429 | 56 | 30 | 2.6 | 9.6 | 0.00 | 0.00 | 0.00 | 57 | 1016.1 |
| 20260510144428 | 57 | 326 | 2.6 | 8.7 | 0.00 | 0.00 | 0.00 | 61 | 1016.3 |
| 20260510141427 | 56 | 55 | 2.6 | 9.6 | 0.00 | 0.00 | 0.00 | 59 | 1016.6 |
| 20260510134427 | 57 | 337 | 2.6 | 7.8 | 0.00 | 0.00 | 0.00 | 64 | 1016.8 |
| 20260510131427 | 55 | 17 | 2.6 | 8.7 | 0.00 | 0.00 | 0.00 | 65 | 1017.2 |
| 20260510124425 | 54 | 23 | 1.7 | 9.6 | 0.00 | 0.00 | 0.00 | 69 | 1017.4 |
| 20260510121424 | 55 | 69 | 3.5 | 9.6 | 0.00 | 0.00 | 0.00 | 71 | 1017.8 |
| 20260510114424 | 53 | 44 | 2.6 | 9.6 | 0.00 | 0.00 | 0.00 | 71 | 1018.2 |
| 20260510111423 | 51 | 68 | 1.7 | 8.7 | 0.00 | 0.00 | 0.00 | 77 | 1018.6 |
| 20260510104424 | 51 | 355 | 1.7 | 7.8 | 0.00 | 0.00 | 0.00 | 77 | 1018.9 |
| 20260510101420 | 50 | 66 | 1.7 | 9.6 | 0.00 | 0.00 | 0.00 | 79 | 1018.9 |
| 20260510091421 | 49 | 0 | 3.5 | 8.7 | 0.00 | 0.00 | 0.00 | 81 | 1019.4 |
| 20260510084420 | 49 | 302 | 2.6 | 6.1 | 0.00 | 0.00 | 0.00 | 83 | 1019.4 |
| 20260510081420 | 47 | 51 | 2.6 | 7.8 | 0.00 | 0.00 | 0.00 | 84 | 1019.5 |
| 20260510074419 | 47 | 68 | 2.6 | 7.8 | 0.00 | 0.00 | 0.00 | 86 | 1019.4 |
| 20260510061417 | 47 | 347 | 0.9 | 6.1 | 0.00 | 0.00 | 0.00 | 89 | 1019.2 |
| 20260510054416 | 47 | 351 | 0.9 | 5.2 | 0.00 | 0.00 | 0.00 | 91 | 1019.1 |
| 20260510051415 | 47 | 25 | 2.6 | 5.2 | 0.00 | 0.00 | 0.00 | 91 | 1019.1 |
| 20260510044415 | 47 | 56 | 0.9 | 7.8 | 0.00 | 0.00 | 0.00 | 91 | 1019.1 |
| 20260510041416 | 47 | 24 | 0.9 | 10.4 | 0.00 | 0.00 | 0.00 | 91 | 1019.2 |
| 20260510034414 | 47 | 28 | 2.6 | 7.8 | 0.00 | 0.00 | 0.00 | 91 | 1019.3 |
| 20260510031414 | 47 | 114 | 3.5 | 6.1 | 0.00 | 0.01 | 0.00 | 92 | 1019.3 |
| 20260510021415 | 47 | 34 | 1.7 | 7.8 | 0.00 | 0.01 | 0.00 | 92 | 1019.6 |
| 20260510014411 | 48 | 45 | 3.5 | 10.4 | 0.00 | 0.01 | 0.00 | 92 | 1019.6 |
| 20260510001409 | 50 | 20 | 4.3 | 11.3 | 0.00 | 0.01 | 0.00 | 89 | 1019.2 |
| 20260509234409 | 50 | 3 | 5.2 | 9.6 | 0.00 | 0.01 | 0.00 | 87 | 1019.2 |
| 20260509231408 | 50 | 312 | 1.7 | 8.7 | 0.00 | 0.01 | 0.00 | 88 | 1019.3 |
| 20260509224408 | 51 | 114 | 3.5 | 10.4 | 0.00 | 0.02 | 0.02 | 86 | 1019.2 |
| 20260509221407 | 51 | 78 | 3.5 | 8.7 | 0.00 | 0.02 | 0.02 | 86 | 1019.1 |